Theta_e
317 316 316 316 316 316 316 315 315 315 316 316 316 316 315 315 315 316 310 313 314 319 317 318 314 314 315 313 314 313 303 301 302 303 304 309 308 312 314 312 315 318 320 328 338
316 316 316 315 315 315 314 314 314 315 315 315 315 315 314 315 313 310 319 317 317 319 316 313 308 310 309 310 312 306 303 303 308 308 307 308 308 309 309 310 311 314 323 337 342
315 315 315 314 314 315 313 314 314 314 314 315 314 314 314 315 308 307 323 325 319 322 316 315 313 309 306 308 309 308 302 308 309 308 309 307 308 310 308 308 312 312 316 332 338
315 315 314 314 314 313 313 313 313 314 314 314 314 314 314 313 299 311 327 321 320 320 314 312 311 305 304 303 308 303 307 308 309 309 307 306 309 307 308 309 314 315 317 319 333
314 314 314 313 313 313 313 313 313 313 314 314 314 313 312 307 306 314 323 323 322 318 311 310 308 307 304 305 306 304 306 308 309 309 308 309 307 307 308 312 313 314 315 315 318
314 313 313 313 312 313 313 313 312 312 316 316 313 313 310 302 312 314 315 318 318 315 312 311 308 310 306 305 304 306 306 307 308 308 309 307 308 309 310 313 312 313 313 314 315
313 313 313 312 312 312 313 312 312 314 316 315 314 312 308 304 314 316 314 313 318 317 312 313 312 306 306 303 306 304 300 303 304 305 305 307 302 304 310 313 312 314 315 315 315
313 312 312 312 312 312 312 312 312 316 315 314 314 312 305 313 316 310 312 312 314 318 317 315 315 309 306 308 304 303 303 298 304 305 306 305 298 305 310 310 310 312 314 315 317
312 311 311 312 312 313 312 311 315 315 315 315 314 309 301 315 306 310 313 310 310 313 316 314 313 307 306 300 298 300 295 297 300 306 305 304 300 306 309 309 310 313 313 314 316
311 311 311 312 312 312 310 310 315 315 315 315 312 305 305 301 307 308 311 310 306 308 309 309 307 302 302 299 292 294 295 297 296 302 304 303 302 306 309 309 310 312 313 314 315
311 310 310 311 312 311 311 314 306 307 307 301 301 300 302 306 309 306 308 306 305 304 298 303 300 296 298 300 300 298 296 295 298 302 301 300 302 304 308 309 309 311 312 314 316
310 310 310 311 311 309 311 306 305 306 298 304 303 302 305 305 300 303 307 300 299 295 298 296 293 300 300 300 298 297 295 295 298 301 300 299 299 303 305 306 307 308 311 313 315
309 309 310 310 311 310 309 307 311 309 300 299 302 301 302 304 299 300 303 300 296 293 294 292 294 298 296 295 293 296 295 295 295 299 301 299 296 299 304 307 308 309 310 312 313
309 309 309 309 308 310 308 310 312 310 296 295 298 300 303 303 297 303 303 299 296 292 293 292 296 294 293 292 295 292 299 297 295 293 290 299 289 298 302 303 306 308 309 310 311
308 309 309 307 309 306 307 310 311 308 284 296 298 307 302 298 298 298 304 300 293 293 293 290 292 291 290 291 295 291 298 296 297 293 294 294 291 296 301 300 304 307 309 310 312
308 308 307 307 310 309 310 311 309 294 284 291 297 295 295 297 296 299 298 301 299 293 294 293 297 294 293 295 295 295 295 296 297 294 287 293 292 293 297 300 304 308 309 310 311
307 306 306 308 302 308 311 307 294 285 294 290 291 294 293 293 293 294 293 292 289 286 287 291 291 294 296 292 295 295 291 285 283 284 285 295 291 295 300 303 305 306 308 311 312
305 304 305 307 308 309 309 299 286 288 289 294 292 293 289 292 292 292 291 289 292 291 288 285 283 291 295 292 290 292 291 284 279 280 286 294 288 295 303 305 307 308 309 310 312
303 312 308 307 308 309 303 289 287 289 291 290 292 288 289 292 291 291 290 289 291 293 286 285 285 294 295 296 295 291 288 294 285 290 284 290 295 300 302 303 304 306 308 310 312
306 308 305 307 309 307 297 288 290 293 293 292 286 289 287 289 289 288 289 291 290 293 296 289 282 291 293 295 296 293 295 287 290 279 280 287 290 291 297 300 304 304 306 310 313
307 303 305 307 307 300 290 289 290 294 294 290 288 288 289 287 288 286 287 292 293 292 295 292 287 288 291 288 290 292 290 291 291 290 284 284 287 301 301 303 304 307 310 311 313
304 299 306 307 295 296 291 290 291 292 294 292 292 291 290 289 287 287 286 290 295 294 290 294 288 284 287 293 296 293 288 292 285 286 290 290 290 304 304 305 307 308 308 311 313
298 300 305 304 289 290 292 290 291 291 291 291 290 292 293 289 284 289 289 294 295 293 290 291 287 282 287 291 295 291 293 294 290 291 289 286 289 303 305 304 307 306 307 308 310
299 295 298 298 296 291 289 289 288 293 291 292 291 293 290 288 291 288 289 293 296 293 296 294 288 285 282 287 290 288 291 293 293 286 289 291 293 298 301 302 305 307 307 308 309
297 294 293 291 292 291 290 289 288 287 291 292 291 291 289 284 287 288 291 290 294 296 294 294 285 289 290 290 290 289 290 291 290 292 288 292 291 297 300 302 303 306 308 307 309
295 292 297 293 292 291 288 289 287 288 288 290 289 292 292 286 287 284 287 289 288 294 291 293 286 288 286 291 290 288 291 291 292 292 293 294 294 301 304 305 305 305 308 309 309
300 299 295 291 291 290 289 288 287 290 291 292 291 291 291 294 295 295 295 294 293 289 287 287 288 287 284 291 289 286 289 288 289 290 291 287 293 299 297 298 301 303 302 302 304
Wind_Speed
19 19 20 20 19 20 20 20 20 20 19 18 18 16 16 16 18 16 13 3 1 6 6 5 12 15 14 14 10 14 12 19 26 23 18 8 17 16 10 16 10 13 11 9 6
21 21 21 21 21 21 21 21 21 20 19 19 17 15 14 15 17 12 2 7 9 6 9 12 13 18 13 18 11 16 17 23 20 16 15 16 14 13 9 16 17 15 8 3 9
21 22 23 23 23 20 21 22 21 21 20 17 15 13 12 14 9 6 10 6 11 9 10 10 7 18 18 14 19 15 27 17 15 11 16 20 19 11 15 18 11 17 17 7 8
23 24 24 25 25 24 24 24 22 21 19 17 14 11 9 9 8 9 6 5 8 12 10 10 13 19 15 20 19 20 21 22 21 11 15 19 16 18 17 22 17 12 11 3 9
24 25 26 25 26 25 24 24 24 23 20 14 8 6 8 7 4 7 2 4 8 10 11 13 14 17 18 11 19 24 22 19 15 19 20 19 20 19 21 18 15 18 16 16 15
23 25 26 26 26 24 23 21 20 21 16 7 3 6 5 5 5 6 9 6 8 10 9 13 9 13 14 15 16 10 12 21 21 21 20 21 22 20 18 19 22 22 23 23 22
24 24 25 26 26 25 22 19 19 16 8 4 7 4 3 10 7 11 7 7 8 11 12 11 13 11 3 14 17 15 19 19 19 17 16 12 24 30 25 24 19 16 17 23 25
25 25 26 26 27 25 21 18 13 4 3 5 6 3 5 5 9 15 9 8 3 7 11 9 8 16 18 16 12 13 19 21 18 23 22 16 27 3 2 16 26 27 22 16 19
26 26 26 26 27 24 20 10 3 1 3 6 6 6 7 5 11 16 14 11 4 3 4 3 9 13 10 16 17 18 19 22 18 15 15 23 19 19 9 8 12 14 19 21 22
26 26 26 25 26 21 15 6 4 6 11 6 7 5 12 15 6 12 14 6 7 0 6 11 9 13 14 15 16 18 23 19 21 15 18 21 20 18 12 9 10 10 10 12 18
27 28 27 25 23 16 10 6 7 5 12 4 5 7 11 14 2 10 12 12 9 10 8 7 12 17 20 19 19 21 23 22 21 12 17 17 20 18 17 15 18 17 15 15 15
28 28 28 25 23 14 9 8 6 8 7 6 4 2 11 7 9 11 11 9 14 15 16 13 14 20 16 13 18 23 24 24 21 18 18 19 25 23 22 22 22 22 21 19 19
27 28 28 24 17 7 6 8 8 4 7 2 3 6 13 16 14 12 15 15 13 15 15 14 17 17 14 20 21 23 23 23 23 19 19 19 25 24 24 25 23 24 24 25 23
28 28 26 27 6 7 6 12 9 6 7 6 3 5 12 18 9 13 8 12 16 18 15 14 13 11 15 21 23 25 23 24 21 19 17 20 19 18 14 18 21 23 24 26 27
28 27 22 11 8 8 12 12 5 6 6 10 5 6 21 13 11 9 12 12 19 20 15 19 16 14 18 21 20 16 21 15 20 23 20 24 18 15 17 18 20 20 21 22 25
29 27 21 2 5 11 16 13 5 9 6 6 6 18 20 7 15 13 16 14 14 15 15 18 14 18 18 18 16 17 18 17 19 15 18 25 23 18 16 19 19 18 17 19 21
29 24 10 6 11 17 13 7 7 7 9 9 14 19 17 12 17 12 20 15 8 11 13 18 14 4 6 12 11 15 11 6 8 12 15 21 20 19 20 22 18 15 15 15 18
28 15 3 3 12 11 10 7 5 6 8 14 14 18 8 15 12 17 14 12 1 10 15 9 13 3 11 14 18 16 15 9 10 6 14 21 10 17 16 15 20 22 16 14 14
25 1 5 12 13 8 9 7 6 8 11 13 18 8 7 15 14 16 15 7 7 10 9 12 9 25 20 10 8 9 17 18 11 18 8 7 13 16 14 13 15 13 15 16 12
5 3 8 17 11 8 3 4 3 4 10 10 10 7 17 18 14 17 11 4 10 6 7 8 14 11 7 16 18 19 8 6 9 6 7 11 16 9 8 6 7 10 13 11 10
4 4 9 16 6 3 7 6 4 6 9 8 10 12 15 15 15 15 7 13 2 15 14 13 7 12 17 3 15 6 14 9 7 12 11 12 3 12 5 8 5 6 6 4 1
5 3 10 12 4 3 6 5 4 6 5 6 8 8 11 16 11 9 8 8 14 15 13 10 6 13 22 12 9 6 3 15 7 14 14 16 6 10 4 3 4 4 5 7 8
6 4 6 11 6 6 4 2 3 8 7 6 6 5 11 12 7 9 8 8 13 7 6 3 5 10 10 3 3 4 9 8 5 10 11 12 13 6 1 3 2 7 12 12 16
5 4 3 5 3 6 7 4 8 7 8 5 12 11 8 13 9 11 17 7 14 19 15 8 5 10 12 18 17 18 15 14 9 4 10 14 21 20 14 12 17 16 17 17 17
5 5 5 6 6 8 5 3 8 9 3 6 5 6 9 7 17 6 18 18 14 10 5 4 9 16 17 21 21 21 20 18 17 17 18 19 21 20 18 20 20 19 17 14 15
5 5 1 5 6 8 3 5 10 8 6 7 8 17 16 8 13 21 19 16 7 7 6 5 7 14 18 13 9 15 16 16 17 18 19 20 26 18 14 14 18 19 13 13 14
2 2 4 4 5 6 5 7 9 12 7 10 15 18 18 13 18 24 21 19 18 12 4 5 6 8 7 13 18 7 5 2 5 14 16 13 21 20 19 22 9 5 7 10 13
Wind_Direction
351 348 343 339 335 333 333 331 329 326 322 318 317 315 314 310 301 268 267 351 268 318 223 182 177 190 212 219 222 241 236 237 238 233 247 237 253 234 246 262 198 207 261 24 128
350 347 342 339 337 334 333 332 328 324 319 317 315 312 311 311 298 280 5 248 235 196 216 196 183 184 195 211 203 215 231 241 254 259 248 258 232 245 234 236 238 223 174 136 160
347 344 339 337 334 332 331 328 325 322 319 316 312 311 305 299 275 77 359 286 208 217 253 243 239 196 221 216 208 217 243 248 251 281 261 259 255 234 247 250 224 226 218 182 182
346 341 337 336 334 333 331 328 326 322 317 309 303 301 304 286 324 24 20 119 194 227 233 221 209 205 221 217 223 245 245 247 264 273 243 250 260 254 250 248 264 233 279 188 213
342 337 335 334 332 330 328 327 327 323 319 308 290 266 258 239 13 48 14 147 193 209 227 220 219 224 240 246 241 235 252 253 241 261 255 268 257 263 257 257 255 267 262 252 244
338 333 332 332 330 328 326 326 325 323 317 311 182 196 267 295 351 325 329 289 257 224 230 236 239 252 282 271 245 266 265 260 255 250 254 255 262 253 246 250 250 247 250 252 250
335 333 332 331 331 328 327 330 325 322 359 91 155 251 251 43 343 320 302 298 252 248 257 239 268 240 259 257 252 258 262 253 242 236 242 255 258 247 247 247 239 242 246 243 241
335 335 334 332 332 330 330 330 319 325 79 125 177 280 59 360 327 357 351 298 241 257 259 284 258 256 263 272 256 248 246 252 242 234 234 229 258 257 119 224 239 239 236 233 237
337 337 336 334 334 331 333 334 295 63 119 155 230 300 73 325 19 14 29 12 15 222 239 246 234 243 230 243 251 240 254 248 239 226 243 216 258 243 239 266 247 236 232 240 246
339 338 338 336 335 334 331 286 152 212 199 231 253 235 33 359 338 337 1 351 5 31 229 229 234 235 221 244 245 246 238 236 258 248 211 244 240 259 205 226 239 247 244 250 248
341 338 339 338 338 334 305 222 340 174 356 34 14 62 358 349 185 356 349 328 328 287 287 277 247 237 249 247 257 279 280 276 276 265 271 263 273 267 262 248 256 251 246 243 244
340 338 337 335 333 313 287 38 45 316 308 56 126 252 14 352 299 346 335 335 318 303 294 273 264 273 285 282 274 262 260 258 261 260 261 265 265 259 253 255 252 255 252 249 249
338 337 333 331 326 285 351 39 323 259 259 91 338 9 14 340 320 346 340 328 316 305 302 277 267 266 256 279 284 259 253 258 260 259 246 261 266 261 257 257 252 248 249 252 247
338 336 333 325 286 347 52 355 324 212 248 32 353 66 335 330 298 337 1 325 307 316 309 285 285 317 269 256 240 249 254 264 263 255 259 251 268 263 259 252 236 238 235 238 243
338 335 332 338 321 327 340 335 326 217 276 359 4 315 334 351 332 346 332 307 300 296 288 271 298 304 293 278 285 266 263 272 258 262 256 251 251 261 253 255 249 245 238 239 238
338 335 326 203 272 341 324 317 218 235 33 349 319 337 333 348 339 323 332 308 286 282 272 265 271 273 275 294 281 264 270 270 269 261 244 239 250 253 256 250 241 242 246 235 235
335 334 327 313 337 322 320 264 246 16 357 346 328 330 322 347 335 343 329 326 338 320 332 320 285 282 285 293 248 238 246 250 235 223 236 221 228 245 249 251 253 257 257 245 241
329 322 188 328 332 323 295 257 15 8 341 324 321 314 326 341 347 330 321 329 92 324 312 331 318 14 338 309 293 279 233 253 252 288 239 226 218 234 240 257 255 253 255 272 254
313 212 334 351 337 313 279 38 15 357 344 321 316 328 340 351 333 328 336 343 341 351 343 317 294 322 293 273 304 270 230 241 270 277 252 230 232 249 248 245 252 247 235 240 235
325 290 24 344 331 285 9 57 352 346 329 319 317 340 325 342 334 345 322 359 331 354 329 303 298 297 326 335 292 238 250 234 219 257 220 234 250 253 164 240 334 229 228 238 238
288 260 18 342 291 18 35 39 324 354 341 324 315 302 316 336 325 321 290 312 36 332 329 302 240 290 303 246 298 254 227 226 284 271 267 242 113 61 40 319 131 65 69 75 320
310 296 10 332 44 28 30 355 350 314 321 294 287 291 306 326 302 311 290 301 327 332 307 320 282 293 299 306 279 265 260 275 233 237 245 285 270 119 97 24 31 85 27 349 323
341 327 38 319 22 27 16 303 272 317 335 311 290 280 319 312 311 289 306 291 319 332 318 321 248 303 323 168 60 339 325 297 197 256 252 259 256 95 52 264 250 312 326 321 316
304 319 102 66 70 340 356 15 337 320 299 285 282 289 339 305 279 278 291 320 316 297 291 272 229 249 280 303 307 296 288 274 270 278 293 269 277 280 280 291 296 308 308 303 299
4 51 14 341 28 341 310 331 329 347 279 300 258 260 343 286 311 270 324 319 307 289 255 271 268 274 278 286 284 278 279 279 271 267 267 280 285 285 303 304 304 301 302 288 278
346 342 211 295 304 300 146 3 322 339 293 308 279 317 312 270 260 288 299 305 284 305 319 284 275 301 290 276 261 296 285 280 289 292 283 290 276 273 296 308 295 296 329 329 312
86 147 276 115 311 289 25 340 315 322 285 264 299 310 310 311 309 292 280 268 253 271 290 271 295 310 286 316 309 268 43 43 284 287 288 278 285 309 303 291 276 324 339 309 300